User: anonymous   Login
Location: Ellerstadt
(49.4644°N, 8.2615°E)
Time: 04:58:21
(UTC+00:00)
Language:

Cosmos 2322 - Orbit

View from above orbital plane
View from above orbital plane
View from above satellite
View from above satellite

Ground track
Ground track

The orbit data is extracted from the following two-line orbital elements,

1 23704U 95058A   21125.80346992 -.00000153  00000-0 -56049-4 0  9994
2 23704  70.9861 310.2766 0006832 110.6934 249.4921 14.13439481316286
Epoch (UTC): 05 May 2021 19:16:59
Eccentricity: 0.0006832
inclination: 70.9861°
perigee height: 842 km
apogee height: 852 km
right ascension of ascending node: 310.2766°
argument of perigee: 110.6934°
revolutions per day: 14.13439481
mean anomaly at epoch: 249.4921°
orbit number at epoch: 31628

The dashed part of the orbit path shows where the satellite is in the earth's shadow,  

DLR